Location: Asheville, NC
(35.6000°N, 82.5500°W)
Time: 19:42:27
(UTC-04:00)

Hubble Space Telescope - Pass Details

Date: 13 March 2018
Orbit: 537 x 541 km, 28.5° (Epoch: 23 June)

Event Time Altitude Azimuth Distance (km) Brightness Sun altitude
Rises 20:07:06 0° 237° (WSW) 2,672 5.4 -7.1°
Reaches altitude 10° 20:09:40 10° 224° (SW) 1,782 4.1 -7.6°
Maximum altitude 20:13:01 24° 169° (S) 1,129 2.3 -8.3°
Drops below altitude 10° 20:16:22 10° 115° (ESE) 1,782 2.8 -9.0°
Enters shadow 20:16:22 10° 115° (ESE) 1,783 2.8 -9.0°
